Location: Hannover
(52.3723°N, 9.7339°E)
Time: 18:09:56
(UTC+02:00)

ISS - Visible Passes

Search period start: 14 May 2021 00:00
Search period end: 24 May 2021 00:00
Orbit: 417 x 422 km, 51.6° (Epoch: 14 May)

Date Brightness Start Highest point End Pass type
(mag) Time Alt. Az. Time Alt. Az. Time Alt. Az.
14 May -3.8 01:18:38 69° SE 01:18:38 69° SE 01:21:46 10° E visible
14 May -3.9 02:51:47 10° W 02:55:09 69° S 02:58:32 10° ESE visible
14 May -2.7 04:28:46 10° W 04:31:39 26° SSW 04:34:31 10° SSE visible
14 May -2.6 22:51:50 10° SSW 22:54:32 23° SSE 22:55:33 20° ESE visible
15 May -3.9 00:27:38 10° WSW 00:30:58 64° SSE 00:34:19 10° E visible
15 May -3.9 02:04:21 10° W 02:07:43 77° S 02:11:06 10° E visible
15 May -3.2 03:41:12 10° W 03:44:19 35° SSW 03:47:26 10° SE visible
15 May -2.1 22:05:05 10° S 22:07:16 16° SE 22:09:28 10° ESE visible
15 May -3.7 23:40:17 10° WSW 23:43:34 52° SSE 23:46:52 10° E visible
16 May -3.9 01:16:54 10° W 01:20:17 81° S 01:23:40 10° E visible
16 May -3.5 02:53:42 10° W 02:56:58 46° SSW 03:00:13 10° SE visible
16 May -1.9 04:31:25 10° WSW 04:33:11 14° SW 04:34:58 10° S visible
16 May -3.4 22:53:00 10° SW 22:56:11 40° SSE 22:59:23 10° E visible
17 May -3.9 00:29:27 10° W 00:32:50 80° S 00:36:13 10° E visible
17 May -3.8 02:06:15 10° W 02:09:34 58° SSW 02:12:54 10° ESE visible
17 May -2.4 03:43:27 10° W 03:45:56 19° SW 03:48:25 10° SSE visible
17 May -2.9 22:05:49 10° SW 22:08:50 31° SSE 22:11:51 10° E visible
17 May -3.9 23:42:01 10° WSW 23:45:23 74° S 23:48:45 10° E visible
18 May -3.9 01:18:47 10° W 01:22:09 69° S 01:22:53 49° SE visible
18 May -1.2 02:55:46 10° W 02:55:46 10° W 02:55:46 10° W visible
18 May -3.8 22:54:37 10° WSW 22:57:57 64° SSE 23:01:18 10° E visible
19 May -3.9 00:31:19 10° W 00:34:42 77° S 00:36:27 26° ESE visible
19 May -1.9 02:08:11 10° W 02:09:22 19° W 02:09:22 19° W visible
19 May -3.6 22:07:15 10° WSW 22:10:31 52° SSE 22:13:49 10° E visible
19 May -3.9 23:43:52 10° W 23:47:14 81° S 23:50:15 13° E visible
20 May -3.1 01:20:40 10° W 01:23:11 38° WSW 01:23:11 38° WSW visible
20 May -3.9 22:56:25 10° W 22:59:47 80° S 23:03:10 10° E visible
21 May -3.8 00:33:11 10° W 00:36:31 57° SSW 00:37:05 48° SSE visible
21 May -3.8 22:08:57 10° WSW 22:12:19 74° S 22:15:41 10° E visible
21 May -3.8 23:45:43 10° W 23:49:04 69° SSW 23:51:02 23° ESE visible
22 May -1.8 01:22:41 10° W 01:23:58 18° WSW 01:23:58 18° WSW visible
22 May -3.8 22:58:14 10° W 23:01:37 77° S 23:04:59 10° E visible
23 May -3.0 00:35:06 10° W 00:37:57 34° SW 00:37:57 34° SW visible
23 May -3.8 22:10:46 10° W 22:14:08 81° S 22:17:31 10° E visible
23 May -3.4 23:47:35 10° W 23:50:49 45° SSW 23:51:57 31° SSE visible
